DW6610 Weather Reports


Display with metric or nautical units.
time (UTC)temp
F
wind
direction
speed
MPH
gust
MPH
rain 1hr
in
rain 24hr
in
rain mn
in
humidity
%
barometer
mb
20230128221557 53 84 1.0 5.0 0.01 0.01 0.01 62 1020.7
20230128221050 53 84 0.0 3.0 0.00 0.00 0.00 62 1020.8
20230128220550 53 65 0.0 4.0 0.00 0.00 0.00 61 1020.7
20230128220106 53 91 0.0 6.0 0.00 0.00 0.00 60 1020.7
20230128215551 54 0 2.0 6.0 0.00 0.00 0.00 58 1020.6
20230128215051 54 340 1.0 6.0 0.00 0.00 0.00 56 1021.1
20230128214558 55 99 1.0 7.0 0.00 0.00 0.00 53 1021.1
20230128214054 55 4 2.0 7.0 0.00 0.00 0.00 50 1020.7
20230128213550 55 81 3.0 9.0 0.00 0.00 0.00 49 1020.5
20230128213102 56 99 4.0 9.0 0.00 0.00 0.00 48 1020.4
20230128212550 57 82 2.0 13.0 0.00 0.00 0.00 44 1020.5
20230128212050 57 117 2.0 13.0 0.00 0.00 0.00 40 1020.6
20230128211601 57 158 3.0 9.0 0.00 0.00 0.00 39 1020.8
20230128211049 58 79 3.0 9.0 0.00 0.00 0.00 38 1020.9
20230128210549 58 348 3.0 9.0 0.00 0.00 0.00 37 1020.9
20230128210105 58 301 3.0 9.0 0.00 0.00 0.00 37 1021.1
20230128205551 58 63 4.0 9.0 0.00 0.00 0.00 37 1020.8
20230128205049 58 94 4.0 9.0 0.00 0.00 0.00 37 1020.8
20230128204614 58 26 3.0 7.0 0.00 0.00 0.00 37 1020.9
20230128204051 58 89 1.0 6.0 0.00 0.00 0.00 40 1020.9
20230128203549 58 248 2.0 7.0 0.00 0.00 0.00 41 1020.6
20230128203057 58 124 3.0 7.0 0.00 0.00 0.00 40 1020.9
20230128202550 59 74 2.0 5.0 0.00 0.00 0.00 40 1020.9
20230128202050 59 58 1.0 8.0 0.00 0.00 0.00 41 1021.1
20230128201554 58 98 2.0 8.0 0.00 0.00 0.00 41 1021.2
20230128201051 57 278 2.0 5.0 0.00 0.00 0.00 41 1021.3
20230128200550 57 98 1.0 5.0 0.00 0.00 0.00 41 1021.5
20230128200058 56 90 2.0 6.0 0.00 0.00 0.00 42 1021.5
20230128195549 56 132 2.0 6.0 0.00 0.00 0.00 41 1021.7
20230128195049 56 49 3.0 6.0 0.00 0.00 0.00 42 1021.9
20230128194608 56 60 2.0 5.0 0.00 0.00 0.00 42 1022.0
20230128194049 56 23 2.0 6.0 0.00 0.00 0.00 42 1022.0
20230128193550 56 39 1.0 6.0 0.00 0.00 0.00 43 1021.9
20230128193134 56 88 1.0 6.0 0.00 0.00 0.00 43 1021.8
20230128192549 56 316 1.0 6.0 0.00 0.00 0.00 43 1021.8
20230128192055 56 79 2.0 6.0 0.00 0.00 0.00 43 1021.8
20230128191556 56 72 1.0 7.0 0.00 0.00 0.00 43 1021.8
20230128191050 55 86 3.0 7.0 0.00 0.00 0.00 43 1021.9
20230128190552 55 75 2.0 7.0 0.00 0.00 0.00 43 1022.3
20230128190115 55 80 2.0 5.0 0.00 0.00 0.00 43 1022.1
20230128185550 55 85 1.0 7.0 0.00 0.00 0.00 42 1022.5
20230128185054 56 307 3.0 7.0 0.00 0.00 0.00 42 1022.4
20230128184557 56 105 2.0 6.0 0.00 0.00 0.00 42 1022.3
20230128184050 56 86 2.0 9.0 0.00 0.00 0.00 41 1022.3
20230128183550 56 93 3.0 11.0 0.00 0.00 0.00 41 1022.5
20230128183055 56 132 3.0 11.0 0.00 0.00 0.00 41 1022.3
20230128182550 56 32 5.0 11.0 0.00 0.00 0.00 41 1022.5
20230128182050 56 103 3.0 10.0 0.00 0.00 0.00 42 1022.7
20230128181608 56 39 4.0 10.0 0.00 0.00 0.00 42 1022.8
20230128181052 56 295 1.0 6.0 0.00 0.00 0.00 45 1022.8
20230128180553 55 110 3.0 9.0 0.00 0.00 0.00 46 1023.0
20230128180058 54 59 3.0 9.0 0.00 0.00 0.00 47 1023.4
20230128175550 54 79 3.0 7.0 0.00 0.00 0.00 46 1023.4
20230128175051 55 82 2.0 6.0 0.00 0.00 0.00 47 1023.6
20230128174601 55 109 2.0 6.0 0.00 0.00 0.00 47 1023.7
20230128174049 55 115 2.0 8.0 0.00 0.00 0.00 49 1023.8
20230128173550 54 332 1.0 8.0 0.00 0.00 0.00 50 1023.8
20230128173059 53 81 2.0 8.0 0.00 0.00 0.00 50 1023.9
20230128172551 53 147 2.0 8.0 0.00 0.00 0.00 52 1024.0
20230128172050 52 74 2.0 8.0 0.00 0.00 0.00 52 1024.3
20230128171602 52 101 3.0 7.0 0.00 0.00 0.00 53 1024.5
20230128171053 52 75 2.0 8.0 0.00 0.00 0.00 55 1024.4
20230128170549 51 351 2.0 8.0 0.00 0.00 0.00 56 1024.7
20230128170100 51 70 4.0 8.0 0.00 0.00 0.00 56 1024.9
20230128165550 50 77 2.0 7.0 0.00 0.00 0.00 57 1025.2
20230128165051 50 96 2.0 8.0 0.00 0.00 0.00 57 1025.3
20230128164600 50 33 1.0 8.0 0.00 0.00 0.00 58 1025.3
20230128164049 49 102 3.0 8.0 0.00 0.00 0.00 58 1025.5
20230128163550 49 24 3.0 9.0 0.00 0.00 0.00 58 1025.5
20230128163104 49 26 2.0 9.0 0.00 0.00 0.00 58 1025.7
20230128162549 49 51 4.0 10.0 0.00 0.00 0.00 59 1025.7
20230128162050 48 285 3.0 10.0 0.00 0.00 0.00 60 1025.8
20230128161555 48 27 2.0 8.0 0.00 0.00 0.00 62 1026.0
20230128161049 47 30 2.0 8.0 0.00 0.00 0.00 62 1025.8
20230128160550 47 86 2.0 8.0 0.00 0.00 0.00 63 1025.5
20230128160058 46 352 2.0 7.0 0.00 0.00 0.00 63 1025.6
20230128155550 46 118 2.0 7.0 0.00 0.00 0.00 63 1025.6
20230128155049 46 112 2.0 6.0 0.00 0.00 0.00 64 1025.6
20230128154555 45 15 2.0 6.0 0.00 0.00 0.00 64 1025.8
20230128154049 45 111 2.0 8.0 0.00 0.00 0.00 65 1025.8
20230128153549 45 336 3.0 8.0 0.00 0.00 0.00 65 1025.7
20230128153103 45 71 1.0 6.0 0.00 0.00 0.00 66 1025.6
20230128152550 44 134 1.0 6.0 0.00 0.00 0.00 67 1025.7
20230128152052 44 51 1.0 6.0 0.00 0.00 0.00 68 1025.8
20230128151603 43 257 2.0 6.0 0.00 0.00 0.00 69 1025.6
20230128151052 42 103 1.0 6.0 0.00 0.00 0.00 69 1025.8
20230128150551 42 99 1.0 6.0 0.00 0.00 0.00 69 1025.8
20230128150059 42 43 1.0 5.0 0.00 0.00 0.00 70 1025.8
20230128145550 42 8 1.0 4.0 0.00 0.00 0.00 70 1025.7
20230128145049 41 60 1.0 4.0 0.00 0.00 0.00 70 1025.7
20230128144552 41 93 1.0 4.0 0.00 0.00 0.00 70 1025.7
20230128144050 41 96 0.0 6.0 0.00 0.00 0.00 71 1025.5
20230128143549 41 140 1.0 6.0 0.00 0.00 0.00 71 1025.5
20230128143053 40 83 1.0 6.0 0.00 0.00 0.00 71 1025.4
20230128142549 40 94 2.0 6.0 0.00 0.00 0.00 71 1025.4
20230128142050 40 68 2.0 6.0 0.00 0.00 0.00 71 1025.3
20230128141554 40 127 1.0 4.0 0.00 0.00 0.00 72 1025.3
20230128141049 39 7 1.0 3.0 0.00 0.00 0.00 73 1025.3
20230128140549 39 65 1.0 3.0 0.00 0.00 0.00 73 1025.3
20230128140128 39 69 1.0 3.0 0.00 0.00 0.00 74 1025.3
20230128135549 38 91 1.0 3.0 0.00 0.00 0.00 75 1025.3
20230128135049 38 0 0.0 3.0 0.00 0.00 0.00 76 1025.3
20230128134558 38 73 1.0 3.0 0.00 0.00 0.00 76 1025.4
20230128134050 37 0 0.0 3.0 0.00 0.00 0.00 77 1025.3
20230128133550 37 103 0.0 2.0 0.00 0.00 0.00 77 1025.3
20230128133057 37 0 0.0 2.0 0.00 0.00 0.00 78 1025.3
20230128132552 36 73 0.0 2.0 0.00 0.00 0.00 78 1025.2
20230128132050 36 86 0.0 2.0 0.00 0.00 0.00 78 1025.2
20230128131556 36 96 0.0 4.0 0.00 0.00 0.00 78 1025.2
20230128131049 36 71 0.0 4.0 0.00 0.00 0.00 79 1025.2
20230128130549 36 68 0.0 4.0 0.00 0.00 0.00 79 1025.2
20230128130102 36 0 0.0 1.0 0.00 0.00 0.00 80 1025.0
20230128125549 36 0 0.0 1.0 0.00 0.00 0.00 80 1025.0
20230128125051 36 0 0.0 0.0 0.00 0.00 0.00 79 1025.0
20230128124607 36 0 0.0 1.0 0.00 0.00 0.00 79 1025.1
20230128124050 36 0 0.0 1.0 0.00 0.00 0.00 79 1025.0
20230128123551 36 0 0.0 1.0 0.00 0.00 0.00 79 1025.0
20230128123056 36 0 0.0 1.0 0.00 0.00 0.00 79 1025.0
20230128122549 36 0 0.0 1.0 0.00 0.00 0.00 78 1025.0
20230128122054 36 0 0.0 1.0 0.00 0.00 0.00 77 1025.1
20230128121559 37 0 0.0 2.0 0.00 0.00 0.00 77 1025.0
20230128121050 37 0 0.0 2.0 0.00 0.00 0.00 77 1025.0
20230128120549 37 0 0.0 1.0 0.00 0.00 0.00 77 1025.0
20230128120100 37 0 0.0 1.0 0.00 0.00 0.00 76 1025.0
20230128115550 38 0 0.0 2.0 0.00 0.00 0.00 76 1025.1
20230128115052 38 68 0.0 2.0 0.00 0.00 0.00 76 1025.1
20230128114554 38 0 0.0 1.0 0.00 0.00 0.00 76 1025.2
20230128114051 38 0 0.0 2.0 0.00 0.00 0.00 76 1025.2
20230128113549 38 79 0.0 2.0 0.00 0.00 0.00 76 1025.1
20230128113056 38 0 0.0 2.0 0.00 0.00 0.00 76 1025.1
20230128112553 38 0 0.0 2.0 0.00 0.00 0.00 76 1025.2
20230128112053 38 0 0.0 2.0 0.00 0.00 0.00 76 1025.2
20230128111557 38 75 0.0 2.0 0.00 0.00 0.00 76 1025.2
20230128111054 38 80 0.0 3.0 0.00 0.00 0.00 75 1025.2
20230128110552 38 94 1.0 3.0 0.00 0.00 0.00 75 1025.2
20230128110058 39 33 0.0 3.0 0.00 0.00 0.00 75 1025.0
20230128105554 39 84 0.0 2.0 0.00 0.00 0.00 75 1025.0
20230128105049 39 91 0.0 2.0 0.00 0.00 0.00 75 1024.9
20230128104559 39 91 0.0 2.0 0.00 0.00 0.00 74 1024.8
20230128104053 39 79 0.0 4.0 0.00 0.00 0.00 74 1024.7
20230128103549 39 84 0.0 4.0 0.00 0.00 0.00 74 1024.6
20230128103100 39 89 0.0 5.0 0.00 0.00 0.00 74 1024.6
20230128102548 40 89 1.0 5.0 0.00 0.00 0.00 74 1024.8
20230128102049 40 6 0.0 5.0 0.00 0.00 0.00 73 1024.7
20230128101600 40 108 1.0 6.0 0.00 0.00 0.00 74 1024.7
20230128101050 40 66 1.0 6.0 0.00 0.00 0.00 74 1024.6
20230128100548 40 93 1.0 4.0 0.00 0.00 0.00 74 1024.7
20230128100102 40 91 1.0 4.0 0.00 0.00 0.00 74 1024.7
20230128095550 40 98 1.0 3.0 0.00 0.00 0.00 74 1024.8
20230128095049 39 91 1.0 5.0 0.00 0.00 0.00 74 1024.7
20230128094602 39 106 1.0 5.0 0.00 0.00 0.00 75 1024.6
20230128094051 39 62 1.0 4.0 0.00 0.00 0.00 75 1024.7
20230128093552 39 79 1.0 4.0 0.00 0.00 0.00 75 1024.6
20230128093056 39 0 1.0 3.0 0.00 0.00 0.00 75 1024.6
20230128092551 39 82 1.0 3.0 0.00 0.00 0.00 75 1024.6
20230128092052 39 68 0.0 2.0 0.00 0.00 0.00 75 1024.6
20230128091558 39 0 0.0 2.0 0.00 0.00 0.00 75 1024.6
20230128091052 39 69 1.0 2.0 0.00 0.00 0.00 75 1024.7
20230128090549 39 80 0.0 3.0 0.00 0.00 0.00 75 1024.6
20230128090100 39 61 0.0 3.0 0.00 0.00 0.00 75 1024.6
20230128085553 39 15 0.0 2.0 0.00 0.00 0.00 75 1024.5
20230128085050 39 0 0.0 2.0 0.00 0.00 0.00 75 1024.6
20230128084557 39 68 0.0 2.0 0.00 0.00 0.00 74 1024.5
20230128084050 39 60 0.0 2.0 0.00 0.00 0.00 74 1024.6
20230128083550 39 67 0.0 2.0 0.00 0.00 0.00 74 1024.7
20230128083059 39 72 0.0 1.0 0.00 0.00 0.00 73 1024.7
20230128082549 40 70 0.0 3.0 0.00 0.00 0.00 73 1024.6
20230128082052 40 67 0.0 3.0 0.00 0.00 0.00 73 1024.6
20230128081603 40 0 0.0 4.0 0.00 0.00 0.00 72 1024.5
20230128081051 40 0 0.0 4.0 0.00 0.00 0.00 72 1024.5
20230128080549 40 58 0.0 3.0 0.00 0.00 0.00 72 1024.5
20230128080105 40 0 0.0 3.0 0.00 0.00 0.00 72 1024.7
20230128075549 40 0 0.0 3.0 0.00 0.00 0.00 72 1024.7
20230128075053 40 75 0.0 1.0 0.00 0.00 0.00 71 1024.6
20230128074603 40 0 0.0 1.0 0.00 0.00 0.00 71 1024.5
20230128074049 41 72 0.0 2.0 0.00 0.00 0.00 71 1024.5
20230128073550 41 63 0.0 2.0 0.00 0.00 0.00 71 1024.5
20230128073057 41 79 0.0 2.0 0.00 0.00 0.00 70 1024.4
20230128072550 41 58 0.0 3.0 0.00 0.00 0.00 70 1024.3
20230128072049 41 62 1.0 3.0 0.00 0.00 0.00 70 1024.4
20230128071559 41 0 0.0 3.0 0.00 0.00 0.00 70 1024.5
20230128071051 41 81 1.0 3.0 0.00 0.00 0.00 70 1024.3
20230128070549 41 63 1.0 3.0 0.00 0.00 0.00 70 1024.2
20230128070100 41 70 1.0 3.0 0.00 0.00 0.00 69 1024.2
20230128065549 41 59 1.0 3.0 0.00 0.00 0.00 69 1024.3
20230128065050 42 86 0.0 2.0 0.00 0.00 0.00 69 1024.2
20230128064559 42 78 0.0 3.0 0.00 0.00 0.00 68 1024.2
20230128064050 42 85 0.0 4.0 0.00 0.00 0.00 68 1024.0
20230128063549 42 79 1.0 4.0 0.00 0.00 0.00 67 1024.2
20230128063059 42 85 1.0 3.0 0.00 0.00 0.00 67 1024.1
20230128062550 43 87 1.0 3.0 0.00 0.00 0.00 67 1024.2
20230128062050 43 94 1.0 3.0 0.00 0.00 0.00 66 1024.1
20230128061605 43 93 1.0 3.0 0.00 0.00 0.00 66 1024.2
20230128061051 43 82 1.0 3.0 0.00 0.00 0.00 66 1024.2
20230128060550 43 80 1.0 4.0 0.00 0.00 0.00 65 1024.1
20230128060109 43 75 1.0 4.0 0.00 0.00 0.00 65 1024.1
20230128055549 43 71 1.0 3.0 0.00 0.00 0.00 65 1024.1
20230128055051 44 68 1.0 4.0 0.00 0.00 0.00 64 1024.1
20230128054555 44 77 1.0 4.0 0.00 0.00 0.00 64 1024.1
20230128054049 44 50 1.0 4.0 0.00 0.00 0.00 64 1024.2
20230128053549 44 40 1.0 4.0 0.00 0.00 0.00 63 1024.1
20230128053055 44 52 2.0 4.0 0.00 0.00 0.00 63 1024.0
20230128052549 44 96 2.0 5.0 0.00 0.00 0.00 63 1024.1
20230128052049 45 65 1.0 5.0 0.00 0.00 0.00 62 1024.0
20230128051554 45 36 2.0 6.0 0.00 0.00 0.00 62 1024.1
20230128051049 45 61 1.0 6.0 0.00 0.00 0.00 62 1024.1
20230128050551 45 101 2.0 6.0 0.00 0.00 0.00 61 1024.1
20230128050102 45 73 1.0 6.0 0.00 0.00 0.00 61 1024.1
20230128045550 45 35 3.0 6.0 0.00 0.00 0.00 61 1024.1
20230128045050 45 89 1.0 7.0 0.00 0.00 0.00 61 1024.0
20230128044600 46 100 2.0 7.0 0.00 0.00 0.00 60 1023.9
20230128044050 46 63 3.0 7.0 0.00 0.00 0.00 60 1023.9
20230128043550 46 105 2.0 7.0 0.00 0.00 0.00 61 1023.9
20230128043102 46 53 2.0 7.0 0.00 0.00 0.00 60 1023.9
20230128042549 46 70 2.0 8.0 0.00 0.00 0.00 60 1023.9
20230128042049 46 319 2.0 8.0 0.00 0.00 0.00 60 1023.9
20230128041557 46 27 2.0 8.0 0.00 0.00 0.00 60 1024.0
20230128041052 46 105 2.0 8.0 0.00 0.00 0.00 60 1023.9
20230128040548 46 349 2.0 6.0 0.00 0.00 0.00 60 1023.8
20230128040120 46 88 2.0 5.0 0.00 0.00 0.00 61 1023.8
20230128035553 46 62 2.0 6.0 0.00 0.00 0.00 60 1023.8
20230128035052 46 15 2.0 9.0 0.00 0.00 0.00 61 1023.7
20230128034609 46 45 2.0 9.0 0.00 0.00 0.00 60 1023.7
20230128034056 46 110 3.0 9.0 0.00 0.00 0.00 60 1023.7
20230128033549 47 355 2.0 8.0 0.00 0.00 0.00 60 1023.7
20230128033101 47 85 3.0 8.0 0.00 0.00 0.00 60 1023.7
20230128032549 47 75 2.0 12.0 0.00 0.00 0.00 60 1023.6
20230128032049 47 65 3.0 12.0 0.00 0.00 0.00 60 1023.6
20230128031603 47 53 4.0 12.0 0.00 0.00 0.00 60 1023.7
20230128031050 47 100 2.0 8.0 0.00 0.00 0.00 60 1023.7
20230128030549 47 1 2.0 7.0 0.00 0.00 0.00 60 1023.7
20230128030101 47 307 3.0 7.0 0.00 0.00 0.00 60 1023.7
20230128025551 47 311 2.0 9.0 0.00 0.00 0.00 60 1023.5
20230128025053 47 75 2.0 9.0 0.00 0.00 0.00 59 1023.5
20230128024600 47 96 3.0 7.0 0.00 0.00 0.00 59 1023.5
20230128024050 47 120 2.0 8.0 0.00 0.00 0.00 59 1023.4
20230128023549 47 76 2.0 8.0 0.00 0.00 0.00 59 1023.3
20230128023121 47 70 3.0 7.0 0.00 0.00 0.00 59 1023.4
20230128022549 48 41 3.0 9.0 0.00 0.00 0.00 59 1023.4
20230128022050 48 67 2.0 9.0 0.00 0.00 0.00 59 1023.3
20230128021601 48 77 3.0 9.0 0.00 0.00 0.00 58 1023.2
20230128021049 48 49 2.0 7.0 0.00 0.00 0.00 58 1023.4
20230128020551 48 65 3.0 6.0 0.00 0.00 0.00 58 1023.2
20230128020059 48 74 3.0 9.0 0.00 0.00 0.00 57 1023.2
20230128015549 48 77 3.0 9.0 0.00 0.00 0.00 57 1023.1
20230128015049 48 2 2.0 9.0 0.00 0.00 0.00 57 1023.1
20230128014553 48 58 2.0 9.0 0.00 0.00 0.00 56 1023.0
20230128014055 48 86 4.0 9.0 0.00 0.00 0.00 56 1022.9
20230128013549 48 101 2.0 8.0 0.00 0.00 0.00 56 1022.9
20230128013056 48 89 2.0 9.0 0.00 0.00 0.00 55 1022.8
20230128012549 49 314 2.0 14.0 0.00 0.00 0.00 55 1022.8
20230128012049 49 303 4.0 14.0 0.00 0.00 0.00 55 1022.8
20230128011557 49 307 3.0 9.0 0.00 0.00 0.00 55 1022.7
20230128011050 49 342 3.0 9.0 0.00 0.00 0.00 54 1022.7
20230128010549 49 32 3.0 8.0 0.00 0.00 0.00 54 1022.6
20230128010101 49 30 2.0 8.0 0.00 0.00 0.00 54 1022.6
20230128005549 49 342 2.0 8.0 0.00 0.00 0.00 53 1022.6
20230128005050 50 16 2.0 5.0 0.00 0.00 0.00 53 1022.8
20230128004553 50 68 3.0 6.0 0.00 0.00 0.00 53 1022.7
20230128004049 50 46 3.0 8.0 0.00 0.00 0.00 52 1022.5
20230128003553 50 30 3.0 8.0 0.00 0.00 0.00 52 1022.4
20230128003058 50 57 3.0 8.0 0.00 0.00 0.00 52 1022.5
20230128002552 50 110 3.0 11.0 0.00 0.00 0.00 51 1022.4
20230128002049 51 230 3.0 11.0 0.00 0.00 0.00 51 1022.4
20230128001558 51 43 4.0 12.0 0.00 0.00 0.00 50 1022.5
20230128001049 51 256 3.0 12.0 0.00 0.00 0.00 49 1022.4
20230128000550 51 321 3.0 8.0 0.00 0.00 0.00 48 1022.3
20230128000057 51 44 3.0 8.0 0.00 0.00 0.00 46 1022.4
20230127235550 51 353 3.0 8.0 0.00 0.00 0.00 45 1022.5
20230127235050 51 58 2.0 8.0 0.00 0.00 0.00 43 1022.4
20230127234558 52 312 2.0 8.0 0.00 0.00 0.00 43 1022.2
20230127234049 52 57 2.0 7.0 0.00 0.00 0.00 42 1022.1
20230127233550 52 67 2.0 8.0 0.00 0.00 0.00 42 1022.0
20230127233057 52 338 3.0 8.0 0.00 0.00 0.00 41 1022.0
20230127232549 53 53 3.0 7.0 0.00 0.00 0.00 41 1022.0
20230127232052 53 315 3.0 11.0 0.00 0.00 0.00 41 1022.0
20230127231606 53 45 3.0 11.0 0.00 0.00 0.00 41 1021.9
20230127231049 53 229 3.0 9.0 0.00 0.00 0.00 41 1021.9
20230127230550 53 79 3.0 14.0 0.00 0.00 0.00 40 1021.9
20230127230102 54 354 4.0 14.0 0.00 0.00 0.00 40 1022.0
20230127225554 54 253 5.0 13.0 0.00 0.00 0.00 39 1021.8
20230127225049 54 181 6.0 13.0 0.00 0.00 0.00 39 1021.9
20230127224603 55 25 4.0 12.0 0.00 0.00 0.00 38 1021.9
20230127224049 55 113 3.0 11.0 0.00 0.00 0.00 38 1022.0
20230127223550 56 78 3.0 11.0 0.00 0.00 0.00 38 1022.0
20230127223106 56 61 4.0 11.0 0.00 0.00 0.00 37 1021.9
20230127222548 57 64 4.0 11.0 0.00 0.00 0.00 37 1022.0
20230127222051 57 331 2.0 11.0 0.00 0.00 0.00 37 1021.9